OPS 4682 DEB, 38422

Orbit data source: Space-Track

OPS 4682 DEB, 38422 is space debris in LEO originally from a launch on Sat, 03 Apr 1965 UTC launched from the Air Force Western Test Range (AFWTR). Debris objects in space refer to the collection of defunct objects orbiting the Earth. Examples of debris include non-operational satellites, rocket bodies, and fragments generated from explosions, collisions, or faulty payload assembly.

Loading next visibility...
Identifier
38422, 1965-027EB
Orbit
LEO
Country
Flag of USUS
Related business
Manufacturer
Unknown
Mission
Spacecraft
Bus & Motor
Unknown
Mass
Unknown
Launch date (UTC)
1965-04-03 (61 years ago)
Launch vehicle
Unknown
Launch site
Air Force Western Test Range (AFWTR)
Object type
Payload
Rocket body
Debris
Shape & HBR
Unknown shape, 0.1 m
Radar Cross Section
Small (<0.1 m²)

Expand to show TLE details & history
Last TLE update: 15 hours ago

TLE from 15 hours ago
0 OPS 4682 DEB
1 38422U 65027EB  26067.85702945  .00000727  00000-0  24685-2 0  9993
2 38422  90.2667  21.8832 0033859 330.2292  29.6902 12.97604216650113
Epoch: 2026-03-08T20:34Z
TLE epoch observation values (Epoch: 2026-03-08T20:34:07.344Z)
Latitude
0.00002°
Longitude
-93.20571°
Altitude
1,251.885 km
Speed
7.24 km/s
True Right ascension
01h 27m 31s
True Declination
0° 00' 00"
Sunlit
Object was in daylight at epoch
Visualization orbit readout
Latitude
Unknown
Longitude
Unknown
Altitude
Unknown
Speed
Unknown
Apparent Right ascension
Unknown
Apparent Declination
Unknown
Sunlit
N/A
Visualization observer readout
Local Sidereal Time
15:43:06
Azimuth
Unknown
Elevation
Unknown
Doppler factor
Unknown
Orbital elements
Apogee altitude
1,294.51 km
Perigee altitude
1,242.727 km
Semi-major axis
7,646.755 km
Eccentricity
0.00339
Inclination
90.2667°
RAAN
21.8832°
Arg. of periapsis
330.2292°
True anomaly
29.88309°
Mean anomaly
29.6902°
Eccentric anomaly
29.78657°
Mean motion
3.24584 °/min
Orbital period
110.91 mins
BSTAR
0.0024685
Loading maneuver chart data...
Computing Atmospheric mass density...
Loading historical data...
Loading historical data...
Loading historical data...
Loading historical data...
Loading historical data...
Loading historical data...
Loading historical data...

Documentation

Showing up to 5 results
|